Regional Weather Roundup
Issued by NWS

Home | Current Version | Previous Version | Graphics & Text | Print | Product List | Glossary On
Versions: 1 2 3 4 5 6 7 8 9 10 11 12 13 14 15 16 17 18 19 20 21 22 23 24 25 26 27 28 29 30 31 32 33 34 35 36 37 38 39 40 41 42 43 44 45 46 47 48 49 50
000
ASUS43 KOAX 301502
RWRNE

WEATHER ROUNDUP FOR NEBRASKA
NATIONAL WEATHER SERVICE OMAHA NE
1000 AM CDT THU JUL 30 2015

NOTES: SATELLITE DATA IS BEING USED TO AUGMENT CLOUD COVER ABOVE
       12000 FEET.
       "FAIR" INDICATES FEW OR NO CLOUDS BELOW 12,000 FEET WITH NO
       SIGNIFICANT WEATHER AND/OR OBSTRUCTIONS TO VISIBILITY.

  * THESE STATIONS DO NOT REPORT WEATHER SUCH AS RAIN...SNOW OR FOG.

NEZ001>004-019>022-054>056-301600-
NEBRASKA PANHANDLE

CITY           SKY/WX    TMP DP  RH WIND       PRES   REMARKS
SCOTTSBLUFF    SUNNY     70  55  59 CALM      30.31R
ALLIANCE       SUNNY     72  55  55 SW6       30.29S
CHADRON        SUNNY     69  50  50 VRB3      30.28S
KIMBALL        SUNNY     70  54  58 W6        30.33S
SIDNEY         SUNNY     74  60  61 SW8       30.32S
$$

NEZ057>060-069>072-079>082-301600-
SOUTHWEST NEBRASKA

CITY           SKY/WX    TMP DP  RH WIND       PRES   REMARKS
NORTH PLATTE   SUNNY     75  64  68 S8        30.26F
IMPERIAL       SUNNY     75  60  59 S8        30.28S
MCCOOK         MOSUNNY   76  65  68 S7        30.27S
$$

NEZ005>010-023>029-035>040-094-301600-
NORTH CENTRAL NEBRASKA

CITY           SKY/WX    TMP DP  RH WIND       PRES   REMARKS
VALENTINE      SUNNY     77  51  40 W13       30.23R
AINSWORTH      MOSUNNY   77  56  47 SW15      30.23S
BROKEN BOW     SUNNY     76  60  57 SW14      30.25S
ORD            SUNNY     76  60  57 VRB6      30.23R
$$

NEZ041-046>049-061>064-073>077-083>087-301600-
SOUTH CENTRAL NEBRASKA

CITY           SKY/WX    TMP DP  RH WIND       PRES   REMARKS
GRAND ISLAND   SUNNY     79  60  52 SW16      30.24R
AURORA         SUNNY     76  64  66 SW13      30.23S
HASTINGS       SUNNY     75  62  64 S9        30.25S
KEARNEY *      SUNNY     75  61  60 S13       30.25S
$$

NEZ011>018-030>034-042>045-301600-
NORTHEAST NEBRASKA

CITY           SKY/WX    TMP DP  RH WIND       PRES   REMARKS
NORFOLK        SUNNY     74  61  63 W8        30.21S
BLAIR          SUNNY     73  61  66 SW3       30.21S
COLUMBUS *     SUNNY     73  59  60 W7        30.22R
FREMONT        SUNNY     74  60  59 W3        30.21S
TEKAMAH        SUNNY     77  64  64 VRB5      30.19R
$$

NEZ050>053-065>068-078-088>093-301600-
SOUTHEAST NEBRASKA

CITY           SKY/WX    TMP DP  RH WIND       PRES   REMARKS
LINCOLN        SUNNY     77  65  66 SW6       30.22S
OMAHA EPPLEY   MOSUNNY   79  60  52 W6        30.21R
FALLS CITY     SUNNY     77  67  71 W5        30.22S
$$

NEZ044-045-051>053-067-301600-
OMAHA AREA

CITY           SKY/WX    TMP DP  RH WIND       PRES   REMARKS
OMAHA EPPLEY   MOSUNNY   79  60  52 W6        30.21R
BLAIR          SUNNY     73  61  66 SW3       30.21S
FREMONT        SUNNY     74  60  59 W3        30.21S
OFFUTT AFB     SUNNY     76  63  62 W6        30.20S
$$


USA.gov is the U.S. government's official web portal to all federal, state and local government web resources and services.